Cloud_Cover
92 100 100 100 100 100 94 70 5 87 100 100 100 77 68 88 100 100 66 87 93 100 100 82 96 98 5 66 6 36 95 48 61 88 90 94 96 100 100 100 100 100 100
100 100 100 100 100 98 100 90 68 57 99 100 88 97 35 94 85 100 100 100 100 99 95 100 100 100 68 5 5 6 91 100 6 87 76 56 100 100 100 100 100 100 100
100 100 74 100 100 91 91 100 38 5 82 100 100 100 100 100 100 100 100 100 100 92 72 86 100 100 46 9 5 5 89 100 100 91 88 62 95 97 100 100 100 100 100
100 100 100 100 100 100 100 100 100 100 58 23 25 100 100 100 100 100 100 100 73 97 90 55 95 100 100 87 40 5 5 44 57 100 100 96 55 97 96 100 100 100 100
100 100 100 100 100 100 100 100 100 100 100 100 100 100 100 100 98 91 100 100 86 31 82 47 64 73 100 96 73 100 96 36 25 23 66 90 86 100 97 100 100 100 100
100 93 50 18 100 100 100 100 100 100 100 100 12 6 32 28 53 97 75 90 100 94 11 38 9 7 5 62 35 6 72 100 95 48 6 32 94 100 94 75 100 100 100
100 75 6 4 24 100 100 100 100 100 97 89 100 61 44 8 15 14 61 5 31 40 79 20 20 5 5 5 5 5 5 17 35 98 98 99 79 25 94 100 99 92 100
100 34 62 13 5 85 100 100 100 100 100 100 100 100 100 100 90 91 99 100 80 68 78 87 25 5 5 5 5 5 5 4 4 13 44 100 100 100 98 97 89 98 100
100 99 51 6 12 5 23 83 100 100 100 100 100 100 100 100 100 100 100 100 100 100 100 100 98 51 5 4 2 5 5 5 5 5 3 23 100 100 100 100 100 99 100
100 100 96 98 100 67 9 9 5 32 98 100 78 100 50 21 96 100 100 100 100 100 100 100 100 100 78 8 5 4 5 2 5 5 5 5 6 78 100 100 100 100 100
86 95 100 73 65 40 5 4 5 5 5 5 18 84 100 94 25 5 24 80 100 100 100 100 100 100 100 44 11 5 5 7 5 5 5 5 5 5 22 100 100 100 100
13 92 99 99 75 42 14 16 14 5 5 5 2 3 5 12 14 5 13 43 26 29 80 99 100 100 84 99 39 9 10 8 18 5 4 5 5 5 3 19 100 100 100
5 4 6 20 51 6 7 34 45 5 5 5 4 3 2 1 5 4 5 1 4 5 5 5 5 17 94 100 100 16 9 9 28 26 5 5 3 5 2 2 14 82 100
2 1 3 5 7 19 6 12 5 5 5 5 5 4 5 5 4 0 0 3 0 0 0 2 5 5 5 5 6 79 98 82 28 72 32 50 8 5 5 4 5 1 72
0 2 4 4 5 5 5 5 5 5 4 3 5 2 0 0 0 0 3 1 0 0 0 0 0 0 0 1 3 4 3 9 48 19 94 75 10 89 72 5 5 4 12
0 0 2 2 1 0 0 0 0 0 0 0 0 0 0 0 0 0 0 0 0 0 0 0 0 0 0 0 0 0 0 0 3 2 9 90 100 61 33 34 5 5 5
0 0 0 0 0 0 0 0 0 0 0 0 0 0 0 0 0 0 0 0 0 0 0 0 0 0 0 0 0 0 0 0 0 0 0 64 100 100 94 6 5 5 5
0 0 0 0 0 0 0 0 0 0 0 0 0 0 0 0 0 0 0 0 0 0 0 0 0 0 0 0 0 0 0 0 0 0 0 0 8 16 100 76 80 6 5
1 4 5 5 0 0 0 0 0 0 0 0 0 0 0 0 0 0 0 0 0 0 0 0 0 0 0 0 0 0 0 0 0 0 0 0 0 0 8 100 100 99 13
0 0 2 4 7 15 18 29 28 10 4 0 0 0 0 0 0 0 0 0 0 0 0 0 0 0 0 0 0 0 5 3 0 0 0 0 0 0 0 12 100 96 94
0 0 0 0 0 1 5 22 98 14 5 5 23 5 5 0 0 0 0 0 0 0 3 1 0 4 5 5 0 0 1 5 4 0 0 0 0 0 0 0 12 73 99
0 0 0 0 0 0 0 0 1 3 5 5 2 0 0 0 0 0 0 0 0 0 5 33 73 27 63 42 5 5 42 25 5 5 5 0 0 0 0 0 1 0 3
0 0 0 0 5 32 8 5 4 5 5 3 0 0 0 0 0 0 0 0 0 0 0 4 83 100 100 100 94 21 5 22 94 62 5 5 0 0 0 0 0 0 12
5 0 5 5 5 4 2 6 8 16 23 4 5 4 4 1 0 0 0 0 0 0 5 25 40 100 100 100 100 96 25 12 17 100 98 26 5 4 0 0 0 0 0
5 5 5 17 50 65 32 5 5 5 5 5 5 4 5 4 0 0 0 0 0 0 1 47 96 15 98 100 100 100 100 46 5 49 100 100 73 13 14 9 5 8 46
26 38 51 99 68 10 13 5 5 5 4 3 4 3 0 0 0 0 0 0 0 2 3 3 6 55 100 67 100 100 100 100 83 6 6 100 100 100 74 100 64 16 85